Home   Weather   Bad Oeynhausen   Past weeks

Flag for Germany Past Weather in Bad Oeynhausen, North Rhine-Westphalia, Germany — Yesterday and Last 2 Weeks

Now
48 °F

Scattered showers. Partly sunny.


Feels Like: 45 °F
Forecast: 31 / 52 °F
Wind: 8 mph from Northwest

Location: Bueckeburg

Current Time: Apr 26, 2017 at 2:15:27 pm

Latest Report: Apr 26, 2017 at 1:20 pm


Visibility: N/A

Pressure: 29.86 "Hg

Humidity: 54%

Dew Point: 32 °F

Location of Bad OeynhausenLocation

Past Weather in Bad Oeynhausen — Graph

°F

Bad Oeynhausen Temperature Yesterday

Maximum temperature yesterday: 50 °F (at 1:20 pm)
Minimum temperature yesterday: 36 °F (at 10:20 pm)
Average temperature yesterday: 43 °F

High & Low Weather Summary for the Past Weeks

 TemperatureHumidityPressure
High57 °F (Apr 21, 1:20 pm)94% (Apr 12, 7:00 pm)30.63 "Hg (Apr 12, 7:00 pm)
Low27 °F (Apr 19, 6:20 am)35% (Apr 20, 5:20 pm)29.62 "Hg (Apr 25, 4:41 am)
Average44 °F73%30.10 "Hg
* Reported Apr 11 12:20 pm — Apr 26 12:20 pm, Bad Oeynhausen, Weather by CustomWeather, © 2017

Note: Actual official high and low records may vary slightly from our data, if they occured in-between our weather recording intervals... More about our weather records

Advertising

Bad Oeynhausen Weather History for the Previous 24 Hours

Scroll right to see more
 ConditionsComfort  
Time TempWeatherWind HumidityBarometerVisibility
12:20 pm
Wed, Apr 26
48 °FScattered clouds.5 mph50%29.86 "HgN/A
11:20 am46 °FScattered clouds.8 mph57%29.86 "HgN/A
10:20 am45 °FScattered clouds.7 mph71%29.86 "HgN/A
9:20 am43 °FPassing clouds.5 mph76%29.86 "HgN/A
8:20 am39 °FScattered clouds.6 mph81%29.86 "HgN/A
7:20 am34 °FScattered clouds.6 mph93%29.83 "HgN/A
6:20 am32 °FPassing clouds.3 mph93%29.83 "HgN/A
5:20 am32 °FPassing clouds.5 mph87%29.83 "HgN/A
4:20 am32 °FPassing clouds.5 mph87%29.83 "HgN/A
3:20 am32 °FPassing clouds.6 mph93%29.80 "HgN/A
2:20 am36 °FPassing clouds.7 mph81%29.80 "HgN/A
1:20 am36 °FPassing clouds.6 mph81%29.80 "HgN/A
12:20 am36 °FPassing clouds.7 mph81%29.80 "HgN/A
11:20 pm
Tue, Apr 25
39 °FPassing clouds.8 mph75%29.80 "HgN/A
10:20 pm36 °FPassing clouds.6 mph87%29.80 "HgN/A
9:20 pm37 °FPassing clouds.3 mph93%29.80 "HgN/A
8:20 pm43 °FPassing clouds.5 mph71%29.80 "HgN/A
7:20 pm45 °FScattered clouds.6 mph66%29.77 "HgN/A
6:20 pm45 °FScattered showers. Scattered clouds.7 mph66%29.77 "HgN/A
5:20 pm45 °FScattered clouds.13 mph71%29.77 "HgN/A
4:20 pm43 °FPassing clouds.9 mph81%29.74 "HgN/A
3:36 pm39 °FSnow showers. Partly sunny.22 mph81%29.74 "HgN/A
3:20 pm46 °FScattered showers. Partly sunny.13 mph76%29.74 "HgN/A
2:20 pm45 °FSprinkles. Partly sunny.30 mph66%29.71 "HgN/A
Weather by CustomWeather, © 2017

See weather overviewHow to use our weather pages